Location: Unspecified
(40.7945°N, 111.1337°W)
Time: 05:26:14
(UTC-06:00)

Vanguard 1 - Pass Details

Date: 02 July 2019
Orbit: 653 x 3830 km, 34.3° (Epoch: 22 July)

Event Time Altitude Azimuth Distance (km) Brightness Sun altitude
Rises 02:35:17 0° 251° (WSW) 7,923 14.4 -24.3°
Reaches altitude 10° 02:40:44 10° 250° (WSW) 6,931 14.0 -24.0°
Maximum altitude 03:03:33 69° 173° (S) 3,321 12.4 -22.5°
Drops below altitude 10° 03:18:09 10° 94° (E) 4,720 13.8 -21.3°
Sets 03:21:04 0° 92° (E) 5,388 14.2 -21.0°
